Location: Caltech
(34.1382°N, 118.1253°W)
Time: 02:03:59
(UTC-07:00)

Iridium 68 - Visible Passes

Search period start: 30 July 2014 00:00
Search period end: 09 August 2014 00:00
Orbit: 776 x 779 km, 86.4° (Epoch: 29 July)

Date Brightness Start Highest point End Pass type
(mag) Time Alt. Az. Time Alt. Az. Time Alt. Az.
30 Jul 8.0 00:32:05 25° NNE 00:32:05 25° NNE 00:34:14 10° N visible
30 Jul 8.2 23:58:40 18° NE 23:58:40 18° NE 00:00:14 10° NNE visible
31 Jul 8.4 01:39:08 16° NW 01:39:08 16° NW 01:40:37 10° NNW visible
31 Jul 8.6 23:25:15 11° NE 23:25:15 11° NE 23:25:30 10° NE visible
01 Aug 8.1 01:05:43 23° NNW 01:05:43 23° NNW 01:07:45 10° N visible
02 Aug 8.0 00:32:18 25° N 00:32:18 25° N 00:34:24 10° N visible
02 Aug 8.1 23:58:52 21° NNE 23:58:52 21° NNE 00:00:40 10° NNE visible
03 Aug 8.6 01:39:20 12° NW 01:39:20 12° NW 01:39:55 10° NW visible
03 Aug 8.4 23:25:26 14° NE 23:25:26 14° NE 23:26:27 10° NNE visible
04 Aug 8.3 01:05:54 18° NNW 01:05:54 18° NNW 01:07:31 10° NNW visible
05 Aug 8.1 00:32:27 23° NNW 00:32:27 23° NNW 00:34:26 10° N visible
05 Aug 8.1 23:59:00 23° NNE 23:59:00 23° NNE 00:00:56 10° N visible
06 Aug 8.2 23:25:33 18° NNE 23:25:33 18° NNE 23:27:01 10° NNE visible
07 Aug 8.6 01:06:01 14° NW 01:06:01 14° NW 01:07:03 10° NNW visible
07 Aug 8.5 22:52:05 11° NE 22:52:05 11° NE 22:52:30 10° NE visible
08 Aug 8.3 00:32:33 20° NNW 00:32:33 20° NNW 00:34:18 10° NNW visible
08 Aug 8.1 23:59:05 24° N 23:59:05 24° N 00:00:00 16° N visible
